Regional Weather Roundup
Issued by NWS

Home | Current Version | Previous Version | Text Only | Print | Product List | Glossary On
Versions: 1 2 3 4 5 6 7 8 9 10 11 12 13 14 15 16 17 18 19 20 21 22 23 24 25 26 27 28 29 30 31 32 33 34 35 36 37 38 39 40 41 42 43 44 45 46 47 48 49 50
000
ASUS43 KLOT 281013
RWRIL

ILLINOIS REGIONAL WEATHER ROUNDUP
NATIONAL WEATHER SERVICE CHICAGO/ROMEOVILLE IL
500 AM CDT FRI AUG 28 2015

NOTE: "FAIR" INDICATES FEW OR NO CLOUDS BELOW 12,000 FEET WITH NO
SIGNIFICANT WEATHER AND/OR OBSTRUCTIONS TO VISIBILITY.

* THESE STATIONS ARE NOT UNDER NWS QUALITY CONTROL. THEY ALSO MAY NOT
  REPORT WEATHER SUCH AS PRECIPITATION OR FOG.

ILZ001-002-007-009-015-016-024-281100-
NORTHWEST ILLINOIS

CITY           SKY/WX    TMP DP  RH WIND       PRES   REMARKS
MOLINE         CLOUDY    61  57  87 CALM      30.08S
STERLING*      CLOUDY   N/A N/A N/A SE3       30.08R
SAVANNA*       CLOUDY    61  57  88 CALM      30.11R
$$

ILZ003-004-008-010-011-017-018-281100-
NORTH CENTRAL ILLINOIS

CITY           SKY/WX    TMP DP  RH WIND       PRES   REMARKS
ROCKFORD       CLOUDY    60  56  86 S5        30.12S
FREEPORT*      CLOUDY    59  56  90 S5        30.12R
ROCHELLE*      CLOUDY    59  57  94 S3        30.11S
DE KALB*       CLOUDY    59  56  91 SE9       30.11F
PERU*          CLOUDY    62  57  83 CALM      30.11S
$$

ILZ005-006-012>014-019>023-281100-
NORTHEAST ILLINOIS

CITY           SKY/WX    TMP DP  RH WIND       PRES   REMARKS
CHICAGO-OHARE  PTCLDY    59  55  87 S3        30.11F
CHICAGO-MIDWAY PTCLDY    62  55  77 S6        30.11F
AURORA         MOCLDY    56  54  93 CALM      30.12S FOG
LANSING*       CLEAR     55  55  97 CALM      30.13S
JOLIET*        PTCLDY    58  56  93 CALM      30.12S
WAUKEGAN       CLEAR     56  55  97 S3        30.10F
DUPAGE AIRPORT PTCLDY    57  53  86 CALM      30.11S
KANKAKEE*      CLEAR     55  55  97 CALM      30.12S
WHEELING       CLEAR     56  53  90 CALM      30.12F
MORRIS*        PTCLDY    56  55  95 E3        30.10F
ROMEOVILLE*    PTCLDY    57  54  92 SE5       30.11F
NORTHERLY ISL    N/A     61  55  81 S5          N/A
$$

LMZ740>746-281100-
SOUTHERN LAKE MICHIGAN

STATION/POSITION SKY/WX   TEMP    WIND        PRES    VSBY  WAVE
                          AIR SEA DIR/SP/G                  HT/PER
                          (F)     (DEG/KT/KT) (MB)    (MI)  (FT/S)
SOUTHERN BUOY              67 67  170/ 12/ 14 1019.5F         1/ 3
WILMETTE HARBOR            58 57  340/  4/  6   N/A           2/ 3
HARRISON CRIB              65     160/ 11/ 13   N/A
BURNHAM HARBOR             61     180/  4/  5   N/A
CALUMET HARBOR             62     150/  3/  4   N/A
BURNS HARBOR               63     140/ 10/ 13 1020.3F
MICHIGAN CITY              60     120/  9/ 10   N/A
MICHIGAN CITY 6N           63 71  170/ 12/ 14   N/A           1/ 2
ST. JOSEPH                 62 71  190/ 14/ 17   N/A           1/ 2
$$

ILZ025>027-034>036-040-047-049-050-058-095>099-281100-
WEST-CENTRAL ILLINOIS

CITY           SKY/WX    TMP DP  RH WIND       PRES   REMARKS
QUINCY         PTCLDY    60  57  89 SE3       30.09R
GALESBURG*     MOCLDY    58  57  96 SE5       30.09S
MACOMB*        MOCLDY    54  54  99 SE3       30.11S
JACKSONVILLE*  PTCLDY    57  55  93 CALM      30.10S
PITTSFIELD*    PTCLDY    58  55  92 CALM      30.11R
$$

ILZ028>032-037-038-041>044-048-051>054-059>061-281100-
CENTRAL ILLINOIS

CITY           SKY/WX    TMP DP  RH WIND       PRES   REMARKS
PONTIAC        MOCLDY    58  58  99 SE3       30.13R
BLOOMINGTON    MOCLDY    61  59  93 S8        30.12F
DECATUR        PTCLDY    56  53  90 CALM      30.12R
PEORIA         MOCLDY    63  57  81 CALM      30.10S
LACON*         MOCLDY    58  55  91 CALM      30.10R
LINCOLN*       PTCLDY    59  56  91 CALM      30.11S
SPRINGFIELD    PTCLDY    59  57  93 CALM      30.11S
TAYLORVILLE    PTCLDY    55  55 100 CALM      30.12R
$$

ILZ033-039-045-046-055>057-062-063-281100-
EAST-CENTRAL ILLINOIS

CITY           SKY/WX    TMP DP  RH WIND       PRES   REMARKS
CHAMPAIGN      CLEAR     57  56  96 E5        30.12S FOG
RANTOUL*       CLEAR     59  57  94 SE3       30.12S
MATTOON        CLEAR     58  55  90 S3        30.12S
PARIS*         CLEAR     58  58  97 CALM      30.14S
$$

ILZ079-100>102-281100-
SOUTHWEST ILLINOIS

CITY           SKY/WX    TMP DP  RH WIND       PRES   REMARKS
ALTON          CLEAR     57  57  98 CALM      30.10F
BELLEVILLE     CLEAR     58  58 100 CALM      30.09S
CAHOKIA*       CLEAR     59  57  93 CALM      30.10S
SPARTA*        CLEAR     58  57  97 CALM      30.11S
$$

ILZ064>066-069>071-074>076-080>082-084>086-088>090-092>094-281100-
SOUTH-CENTRAL ILLINOIS

CITY           SKY/WX    TMP DP  RH WIND       PRES   REMARKS
CARBONDALE     FOG       55  54  96 CALM      30.11S VSB 1/4
CAIRO*         CLEAR     55  55 100 CALM      30.10S
EFFINGHAM*     CLEAR     56  54  93 CALM      30.14R
MARION         FOG       57  55  94 CALM      30.12S VSB 1/2
MT. VERNON     CLEAR     54  48  82 CALM      30.13R
CENTRALIA*     CLEAR     56  56 100 CALM      30.11S
SALEM*         CLEAR     57  55  94 CALM      30.12S
METROPOLIS*    CLEAR     55  55 100 CALM      30.11S FOG
$$

ILZ067-068-072-073-078-083-087-091-281100-
SOUTHEAST ILLINOIS

CITY           SKY/WX    TMP DP  RH WIND       PRES   REMARKS
LAWRENCEVILLE  CLEAR     58  55  90 CALM      30.14S
FLORA*         CLEAR     55  54  97 CALM      30.12F
FAIRFIELD*     CLEAR     58  58  99 CALM      30.12S FOG
HARRISBURG*    CLEAR     55  54  99 CALM      30.12S FOG
ROBINSON*      FOG       53  52  97 CALM      30.14F VSB 1
CARMI*         CLEAR     54  54  98 CALM      30.12S
$$

ABBREVIATIONS USED IN REMARKS
   TC - TEMPERATURE IN CELSIUS
  WCI - WIND CHILL INDEX
   HX - HEAT INDEX
  VSB - VISIBILITY
$$



USA.gov is the U.S. government's official web portal to all federal, state and local government web resources and services.